This is the latest recevied weather packets stored in our database for station/object DH1FR-13. If no packets are shown the sender has not sent any weather packets the latest 10 day(s).
| Time | Temp. | Humidity | Pressure | Rain* | Wind** | Luminosity | Snow |
|---|---|---|---|---|---|---|---|
| 1787974200 | 12.78° C | 94% | 1017.1 hPa | 0 mm | 0 m/s | - | - |
| 1787973600 | 12.78° C | 94% | 1017 hPa | 0 mm | 0 m/s | - | - |
| 1787973000 | 13.33° C | 92% | 1017.1 hPa | 0 mm | 0 m/s | - | - |
| 1787972400 | 13.33° C | 92% | 1016.8 hPa | 0 mm | 0 m/s | - | - |
| 1787971801 | 13.33° C | 93% | 1017.2 hPa | 0 mm | 0 m/s | - | - |
| 1787971201 | 12.78° C | 93% | 1016.9 hPa | 0 mm | 0 m/s | - | - |
| 1787970601 | 12.78° C | 92% | 1016.9 hPa | 0 mm | 0 m/s | - | - |
| 1787970000 | 13.33° C | 91% | 1017.3 hPa | 0 mm | 0 m/s | - | - |
| 1787969401 | 13.33° C | 90% | 1017.1 hPa | 0 mm | 0 m/s | - | - |
| 1787968800 | 13.33° C | 90% | 1017.2 hPa | 0 mm | 0 m/s | - | - |
| 1787968200 | 13.33° C | 90% | 1017.4 hPa | 0 mm | 0 m/s | - | - |
| 1787967601 | 12.78° C | 91% | 1017.3 hPa | 0 mm | 0 m/s | - | - |
| 1787967000 | 12.78° C | 93% | 1017 hPa | 0 mm | 0 m/s | - | - |
| 1787966400 | 12.78° C | 94% | 1017.1 hPa | 0 mm | 0 m/s | - | - |
| 1787965801 | 13.33° C | 91% | 1017.2 hPa | 0 mm | 0 m/s | - | - |
| 1787965201 | 13.33° C | 91% | 1017.2 hPa | 0 mm | 0 m/s | - | - |
| 1787964600 | 13.33° C | 91% | 1017.1 hPa | 0 mm | 0 m/s | - | - |
| 1787964001 | 13.33° C | 92% | 1017.3 hPa | 0 mm | 0 m/s | - | - |
| 1787963400 | 13.89° C | 92% | 1017.3 hPa | 0 mm | 0 m/s | - | - |
| 1787962801 | 13.89° C | 90% | 1017.2 hPa | 0 mm | 0 m/s | - | - |
| 1787962201 | 14.44° C | 88% | 1016.9 hPa | 0 mm | 0 m/s | - | - |
| 1787961601 | 15° C | 87% | 1016.6 hPa | 0 mm | 0 m/s | - | - |
| 1787961001 | 15.56° C | 85% | 1017 hPa | 0 mm | 0 m/s | - | - |
| 1787960401 | 15.56° C | 84% | 1017.1 hPa | 0 mm | 0 m/s | - | - |
| 1787959800 | 16.11° C | 82% | 1017.1 hPa | 0 mm | 0 m/s | - | - |
* Rain latest hour (hover to see other rain measurements)
** Current wind speed in m/s (hover to see current wind gust speed)